Location: Litvinovka
(48.6667°N, 34.3500°E)
Time: 16:04:51
(UTC+00:00)

Cosmos 1048 Rocket - Pass Details

Date: 18 September 2020
Orbit: 742 x 792 km, 74.0° (Epoch: 21 October)

Event Time Altitude Azimuth Distance (km) Brightness Sun altitude
Rises 17:43:30 0° 336° (NNW) 3,257 8.1 -19.1°
Reaches altitude 10° 17:45:53 10° 335° (NNW) 2,333 7.2 -19.5°
Maximum altitude 17:51:12 81° 249° (WSW) 798 4.0 -20.3°
Enters shadow 17:53:54 30° 166° (SSE) 1,374 4.9 -20.7°
